Weather History for KVOK - June, 2013

Change the Weather History Date:

Wednesday, June 19, 2013

  Actual Average Record
Temperature  
Mean Temperature 60 °F -  
Max Temperature 78 °F 75 °F 91 °F (2012)
Min Temperature 42 °F 61 °F 41 °F (2008)
Degree Days  
Heating Degree Days 5    
Growing Degree Days 10 (Base 50)    
Moisture  
Dew Point 51 °F    
Average Humidity 72    
Maximum Humidity 100    
Minimum Humidity 44    
Precipitation  
Precipitation 0.00 in - - ()
Sea Level Pressure  
Sea Level Pressure 30.10 in    
Wind  
Wind Speed 4 mph (SE)    
Max Wind Speed 8 mph    
Max Gust Speed -    
Visibility 9 miles    
Events      
Averages and records for this station are not official NWS values.
T = Trace of Precipitation, MM = Missing Value Source: NWS Daily Summary

Daily Weather History Graph

Daily Weather History Graph

Search for Another Location

Airport or City:

Trip Planner

Search our weather history database for the weather conditions in past years. The results will help you decide how hot, cold, wet, or windy it might be!

Date:

Astronomy

Jun. 19, 2013 Rise Set
Actual Time 5:18 AM CDT 8:46 PM CDT
Civil Twilight 4:41 AM CDT 9:23 PM CDT
Nautical Twilight 3:54 AM CDT 10:10 PM CDT
Astronomical Twilight 2:53 AM CDT 11:11 PM CDT
Moon 4:34 PM CDT (6/19) 2:09 AM CDT (6/19)
Length of Visible Light 16h 41m
Length of Day
15h 28m
Waxing Gibbous, 80% of the Moon is Illuminated
Jun 19
Waxing Gibbous
Jun 23
Full
Jun 29
Last Quarter
Jul 8
New
Jul 15
First Quarter

Hourly Weather History & Observations

Time (CDT) Temp. Windchill Dew Point Humidity Pressure Visibility Wind Dir Wind Speed Gust Speed Precip Events Conditions
3:58 AM 45.1 °F - 45.1 °F 100% 30.12 in 10.0 mi ESE 2.3 mph - N/A   Clear
4:18 AM 44.6 °F 43.1 °F 44.6 °F 100% 30.11 in 7.0 mi ESE 3.5 mph - N/A   Clear
4:28 AM 42.8 °F 40.1 °F 42.8 °F 100% 30.11 in 4.0 mi ESE 4.6 mph - N/A   Clear
4:38 AM 44.6 °F 42.2 °F 44.6 °F 100% 30.11 in 5.0 mi East 4.6 mph - N/A   Clear
4:43 AM 44.6 °F 42.2 °F 44.6 °F 100% 30.10 in 10.0 mi East 4.6 mph - N/A   Clear
4:58 AM 45.0 °F 42.6 °F 45.0 °F 100% 30.11 in 9.0 mi ESE 4.6 mph - N/A   Clear
5:58 AM 45.1 °F - 45.1 °F 100% 30.13 in 10.0 mi SE 2.3 mph - N/A   Clear
6:58 AM 53.6 °F - 50.0 °F 88% 30.15 in 10.0 mi SE 4.6 mph - N/A   Clear
7:58 AM 59.0 °F - 51.8 °F 77% 30.15 in 10.0 mi ESE 3.5 mph - N/A   Clear
8:58 AM 64.4 °F - 50.0 °F 59% 30.16 in 10.0 mi Variable 4.6 mph - N/A   Partly Cloudy
9:58 AM 68.0 °F - 50.0 °F 52% 30.15 in 10.0 mi South 6.9 mph - N/A   Scattered Clouds
10:58 AM 71.6 °F - 50.0 °F 46% 30.13 in 10.0 mi SSE 6.9 mph - N/A   Partly Cloudy
11:58 AM 73.4 °F - 53.6 °F 50% 30.12 in 10.0 mi ESE 5.8 mph - N/A   Partly Cloudy
12:58 PM 75.2 °F - 51.8 °F 44% 30.10 in 10.0 mi South 4.6 mph - N/A   Partly Cloudy
1:58 PM 76.1 °F - 54.0 °F 46% 30.09 in 10.0 mi Variable 5.8 mph - N/A   Clear
2:58 PM 75.2 °F - 53.6 °F 47% 30.08 in 10.0 mi SSE 5.8 mph - N/A   Partly Cloudy
3:58 PM 77.0 °F - 55.4 °F 47% 30.08 in 10.0 mi SSE 5.8 mph - N/A   Scattered Clouds
4:58 PM 78.8 °F - 55.4 °F 44% 30.07 in 10.0 mi South 8.1 mph - N/A   Scattered Clouds
5:58 PM 78.8 °F - 55.4 °F 44% 30.06 in 10.0 mi SSE 5.8 mph - N/A   Mostly Cloudy
6:58 PM 75.2 °F - 57.2 °F 53% 30.06 in 10.0 mi South 4.6 mph - N/A   Mostly Cloudy
7:58 PM 75.2 °F - 57.2 °F 53% 30.05 in 10.0 mi SSE 3.5 mph - N/A   Mostly Cloudy
8:58 PM 66.2 °F - 59.0 °F 78% 30.04 in 10.0 mi SSE 3.5 mph - N/A   Scattered Clouds
9:58 PM 60.8 °F - 57.2 °F 88% 30.08 in 10.0 mi SE 3.5 mph - N/A   Scattered Clouds
10:58 PM 57.2 °F - 55.4 °F 94% 30.08 in 10.0 mi East 4.6 mph - N/A   Scattered Clouds
11:58 PM 57.6 °F - 56.3 °F 96% 30.09 in 10.0 mi SSE 4.6 mph - N/A   Clear